User: anonymous
Location: Unspecified
(0.0000°N, 0.0000°E)
Time: 07:23:01
(UTC+00:00)
Language:

Altair - Orbit

View from above orbital plane
View from above orbital plane
View from above satellite
View from above satellite

Ground track
Ground track

The orbit data is extracted from the following two-line orbital elements,

1 00050U 60009B   14256.74399819 -.00000112  00000-0 -24942-3 0  1002
2 00050 047.2305 170.3675 0113335 176.2821 183.8833 12.20084289413828
Epoch (UTC): 13 September 2014 17:51:21
Eccentricity: 0.0113335
inclination: 47.2305°
perigee height: 1502 km
apogee height: 1682 km
right ascension of ascending node: 170.3675°
argument of perigee: 176.2821°
revolutions per day: 12.20084289
mean anomaly at epoch: 183.8833°
orbit number at epoch: 41382

The dashed part of the orbit path shows where the satellite is in the earth's shadow,  

DLR